This demonstration page uses our WeatherBlox Daily Observations layout. Learn more.

Left ArrowRight Arrow

39.01783, -85.05884

Hourly Observations for June 6, 2018

Temp ( °F °C ) Dew Point ( °F °C ) Humidity (%) Winds ( mph kmh ) Pressure ( in mb ) Visibility ( mi km ) Precip ( " mm )
12:52 am 00:52 Partly Cloudy 65 18.3 59 15 81 81 WNW 6 9 29.82 1010 10 16 N/A
1:52 am 01:52 Partly Cloudy 66 18.9 60 15.6 81 81 NW 7 11 29.82 1010 10 16 N/A
2:52 am 02:52 Mostly Cloudy 66 18.9 60 15.6 81 81 NNW 7 11 29.82 1010 10 16 N/A
3:52 am 03:52 Mostly Cloudy 64 17.8 56 13.3 75 75 N 8 13 29.82 1010 10 16 N/A
4:52 am 04:52 Mostly Cloudy 63 17.2 54 12.2 73 73 N 8 13 29.84 1011 10 16 N/A
5:52 am 05:52 Mostly Clear 62 16.7 54 12.2 75 75 NE 14 22 29.86 1011 10 16 N/A
6:52 am 06:52 Mostly Sunny 61 16.1 52 11.1 72 72 NE 13 20 29.87 1012 10 16 N/A
7:52 am 07:52 Mostly Sunny 61 16.1 51 10.6 70 70 NE 14 22 29.91 1013 10 16 N/A
8:52 am 08:52 Sunny 62 16.7 50 10 65 65 ENE 12 19 29.95 1014 10 16 N/A
9:52 am 09:52 Sunny 64 17.8 50 10 60 60 ENE 13 20 29.96 1015 10 16 N/A
10:52 am 10:52 Mostly Sunny 67 19.4 50 10 55 55 NE 10 17 29.96 1015 10 16 N/A
11:52 am 11:52 Sunny 68 20 49 9.4 51 51 N N/A 29.96 1015 10 16 N/A
12:52 pm 12:52 Mostly Sunny 72 22.2 51 10.6 48 48 N 12 19 29.96 1015 10 16 N/A
1:52 pm 13:52 Mostly Sunny 73 22.8 50 10 44 44 NNE 10 17 29.96 1015 10 16 N/A
2:52 pm 14:52 Mostly Sunny 73 22.8 48 8.9 41 41 VRB 3 6 29.93 1014 10 16 N/A
3:52 pm 15:52 Mostly Sunny 75 23.9 49 9.4 40 40 VRB 3 6 29.93 1014 10 16 N/A
4:52 pm 16:52 Partly Cloudy 76 24.4 49 9.4 39 39 N 6 9 29.93 1014 10 16 N/A
5:52 pm 17:52 Mostly Cloudy 76 24.4 47 8.3 36 36 N 7 11 29.93 1013 10 16 N/A
6:52 pm 18:52 Mostly Cloudy 76 24.4 50 10 40 40 VRB 6 9 29.92 1013 10 16 N/A
7:52 pm 19:52 Partly Cloudy 73 22.8 50 10 44 44 SE 3 6 29.92 1013 10 16 N/A
8:52 pm 20:52 Partly Cloudy 71 21.7 49 9.4 46 46 E 7 11 29.93 1014 10 16 N/A
9:52 pm 21:52 Mostly Clear 66 18.9 52 11.1 61 61 SSE 5 7 29.94 1014 10 16 N/A
10:52 pm 22:52 Clear 65 18.3 51 10.6 61 61 N N/A 29.97 1015 10 16 N/A
11:52 pm 23:52 Mostly Clear 58 14.4 51 10.6 78 78 SE 5 7 29.97 1015 10 16 N/A

Powered by AerisWeather